Year,Month,Day,Hour,Minute,Value (Times are PST for insolation in W/m^2)
2020,01,30,00,00,0.00
2020,01,30,00,01,0.00
2020,01,30,00,02,0.00
2020,01,30,00,03,0.00
2020,01,30,00,04,0.00
2020,01,30,00,05,0.00
2020,01,30,00,06,0.00
2020,01,30,00,07,0.00
2020,01,30,00,08,0.00
2020,01,30,00,09,0.00
2020,01,30,00,10,0.00
2020,01,30,00,11,0.00
2020,01,30,00,12,0.00
2020,01,30,00,13,0.00
2020,01,30,00,14,0.00
2020,01,30,00,15,0.00
2020,01,30,00,16,0.00
2020,01,30,00,17,0.00
2020,01,30,00,18,0.00
2020,01,30,00,19,0.00
2020,01,30,00,20,0.00
2020,01,30,00,21,0.00
2020,01,30,00,22,0.00
2020,01,30,00,23,0.00
2020,01,30,00,24,0.00
2020,01,30,00,25,0.00
2020,01,30,00,26,0.00
2020,01,30,00,27,0.00
2020,01,30,00,28,0.00
2020,01,30,00,29,0.00
2020,01,30,00,30,0.00
2020,01,30,00,31,0.00
2020,01,30,00,32,0.00
2020,01,30,00,33,0.00
2020,01,30,00,34,0.00
2020,01,30,00,35,0.00
2020,01,30,00,36,0.00
2020,01,30,00,37,0.00
2020,01,30,00,38,0.00
2020,01,30,00,39,0.00
2020,01,30,00,40,0.00
2020,01,30,00,41,0.00
2020,01,30,00,42,0.00
2020,01,30,00,43,0.00
2020,01,30,00,44,0.00
2020,01,30,00,45,0.00
2020,01,30,00,46,0.00
2020,01,30,00,47,0.00
2020,01,30,00,48,0.00
2020,01,30,00,49,0.00
2020,01,30,00,50,0.00
2020,01,30,00,51,0.00
2020,01,30,00,52,0.00
2020,01,30,00,53,0.00
2020,01,30,00,54,0.00
2020,01,30,00,55,0.00
2020,01,30,00,56,0.00
2020,01,30,00,57,0.00
2020,01,30,00,58,0.00
2020,01,30,00,59,0.00
2020,01,30,01,00,0.00
2020,01,30,01,01,0.00
2020,01,30,01,02,0.00
2020,01,30,01,03,0.00
2020,01,30,01,04,0.00
2020,01,30,01,05,0.00
2020,01,30,01,06,0.00
2020,01,30,01,07,0.00
2020,01,30,01,08,0.00
2020,01,30,01,09,0.00
2020,01,30,01,10,0.00
2020,01,30,01,11,0.00
2020,01,30,01,12,0.00
2020,01,30,01,13,0.00
2020,01,30,01,14,0.00
2020,01,30,01,15,0.00
2020,01,30,01,16,0.00
2020,01,30,01,17,0.00
2020,01,30,01,18,0.00
2020,01,30,01,19,0.00
2020,01,30,01,20,0.00
2020,01,30,01,21,0.00
2020,01,30,01,22,0.00
2020,01,30,01,23,0.00
2020,01,30,01,24,0.00
2020,01,30,01,25,0.00
2020,01,30,01,26,0.00
2020,01,30,01,27,0.00
2020,01,30,01,28,0.00
2020,01,30,01,29,0.00
2020,01,30,01,30,0.00
2020,01,30,01,31,0.00
2020,01,30,01,32,0.00
2020,01,30,01,33,0.00
2020,01,30,01,34,0.00
2020,01,30,01,35,0.00
2020,01,30,01,36,0.00
2020,01,30,01,37,0.00
2020,01,30,01,38,0.00
2020,01,30,01,39,0.00
2020,01,30,01,40,0.00
2020,01,30,01,41,0.00
2020,01,30,01,42,0.00
2020,01,30,01,43,0.00
2020,01,30,01,44,0.00
2020,01,30,01,45,0.00
2020,01,30,01,46,0.00
2020,01,30,01,47,0.00
2020,01,30,01,48,0.00
2020,01,30,01,49,0.00
2020,01,30,01,50,0.00
2020,01,30,01,51,0.00
2020,01,30,01,52,0.00
2020,01,30,01,53,0.00
2020,01,30,01,54,0.00
2020,01,30,01,55,0.00
2020,01,30,01,56,0.00
2020,01,30,01,57,0.00
2020,01,30,01,58,0.00
2020,01,30,01,59,0.00
2020,01,30,02,00,0.00
2020,01,30,02,01,0.00
2020,01,30,02,02,0.00
2020,01,30,02,03,0.00
2020,01,30,02,04,0.00
2020,01,30,02,05,0.00
2020,01,30,02,06,0.00
2020,01,30,02,07,0.00
2020,01,30,02,08,0.00
2020,01,30,02,09,0.00
2020,01,30,02,10,0.00
2020,01,30,02,11,0.00
2020,01,30,02,12,0.00
2020,01,30,02,13,0.00
2020,01,30,02,14,0.00
2020,01,30,02,15,0.00
2020,01,30,02,16,0.00
2020,01,30,02,17,0.00
2020,01,30,02,18,0.00
2020,01,30,02,19,0.00
2020,01,30,02,20,0.00
2020,01,30,02,21,0.00
2020,01,30,02,22,0.00
2020,01,30,02,23,0.00
2020,01,30,02,24,0.00
2020,01,30,02,25,0.00
2020,01,30,02,26,0.00
2020,01,30,02,27,0.00
2020,01,30,02,28,0.00
2020,01,30,02,29,0.00
2020,01,30,02,30,0.00
2020,01,30,02,31,0.00
2020,01,30,02,32,0.00
2020,01,30,02,33,0.00
2020,01,30,02,34,0.00
2020,01,30,02,35,0.00
2020,01,30,02,36,0.00
2020,01,30,02,37,0.00
2020,01,30,02,38,0.00
2020,01,30,02,39,0.00
2020,01,30,02,40,0.00
2020,01,30,02,41,0.00
2020,01,30,02,42,0.00
2020,01,30,02,43,0.00
2020,01,30,02,44,0.00
2020,01,30,02,45,0.00
2020,01,30,02,46,0.00
2020,01,30,02,47,0.00
2020,01,30,02,48,0.00
2020,01,30,02,49,0.00
2020,01,30,02,50,0.00
2020,01,30,02,51,0.00
2020,01,30,02,52,0.00
2020,01,30,02,53,0.00
2020,01,30,02,54,0.00
2020,01,30,02,55,0.00
2020,01,30,02,56,0.00
2020,01,30,02,57,0.00
2020,01,30,02,58,0.00
2020,01,30,02,59,0.00
2020,01,30,03,00,0.00
2020,01,30,03,01,0.00
2020,01,30,03,02,0.00
2020,01,30,03,03,0.00
2020,01,30,03,04,0.00
2020,01,30,03,05,0.00
2020,01,30,03,06,0.00
2020,01,30,03,07,0.00
2020,01,30,03,08,0.00
2020,01,30,03,09,0.00
2020,01,30,03,10,0.00
2020,01,30,03,11,0.00
2020,01,30,03,12,0.00
2020,01,30,03,13,0.00
2020,01,30,03,14,0.00
2020,01,30,03,15,0.00
2020,01,30,03,16,0.00
2020,01,30,03,17,0.00
2020,01,30,03,18,0.00
2020,01,30,03,19,0.00
2020,01,30,03,20,0.00
2020,01,30,03,21,0.00
2020,01,30,03,22,0.00
2020,01,30,03,23,0.00
2020,01,30,03,24,0.00
2020,01,30,03,25,0.00
2020,01,30,03,26,0.00
2020,01,30,03,27,0.00
2020,01,30,03,28,0.00
2020,01,30,03,29,0.00
2020,01,30,03,30,0.00
2020,01,30,03,31,0.00
2020,01,30,03,32,0.00
2020,01,30,03,33,0.00
2020,01,30,03,34,0.00
2020,01,30,03,35,0.00
2020,01,30,03,36,0.00
2020,01,30,03,37,0.00
2020,01,30,03,38,0.00
2020,01,30,03,39,0.00
2020,01,30,03,40,0.00
2020,01,30,03,41,0.00
2020,01,30,03,42,0.00
2020,01,30,03,43,0.00
2020,01,30,03,44,0.00
2020,01,30,03,45,0.00
2020,01,30,03,46,0.00
2020,01,30,03,47,0.00
2020,01,30,03,48,0.00
2020,01,30,03,49,0.00
2020,01,30,03,50,0.00
2020,01,30,03,51,0.00
2020,01,30,03,52,0.00
2020,01,30,03,53,0.00
2020,01,30,03,54,0.00
2020,01,30,03,55,0.00
2020,01,30,03,56,0.00
2020,01,30,03,57,0.00
2020,01,30,03,58,0.00
2020,01,30,03,59,0.00
2020,01,30,04,00,0.00
2020,01,30,04,01,0.00
2020,01,30,04,02,0.00
2020,01,30,04,03,0.00
2020,01,30,04,04,0.00
2020,01,30,04,05,0.00
2020,01,30,04,06,0.00
2020,01,30,04,07,0.00
2020,01,30,04,08,0.00
2020,01,30,04,09,0.00
2020,01,30,04,10,0.00
2020,01,30,04,11,0.00
2020,01,30,04,12,0.00
2020,01,30,04,13,0.00
2020,01,30,04,14,0.00
2020,01,30,04,15,0.00
2020,01,30,04,16,0.00
2020,01,30,04,17,0.00
2020,01,30,04,18,0.00
2020,01,30,04,19,0.00
2020,01,30,04,20,0.00
2020,01,30,04,21,0.00
2020,01,30,04,22,0.00
2020,01,30,04,23,0.00
2020,01,30,04,24,0.00
2020,01,30,04,25,0.00
2020,01,30,04,26,0.00
2020,01,30,04,27,0.00
2020,01,30,04,28,0.00
2020,01,30,04,29,0.00
2020,01,30,04,30,0.00
2020,01,30,04,31,0.00
2020,01,30,04,32,0.00
2020,01,30,04,33,0.00
2020,01,30,04,34,0.00
2020,01,30,04,35,0.00
2020,01,30,04,36,0.00
2020,01,30,04,37,0.00
2020,01,30,04,38,0.00
2020,01,30,04,39,0.00
2020,01,30,04,40,0.00
2020,01,30,04,41,0.00
2020,01,30,04,42,0.00
2020,01,30,04,43,0.00
2020,01,30,04,44,0.00
2020,01,30,04,45,0.00
2020,01,30,04,46,0.00
2020,01,30,04,47,0.00
2020,01,30,04,48,0.00
2020,01,30,04,49,0.00
2020,01,30,04,50,0.00
2020,01,30,04,51,0.00
2020,01,30,04,52,0.00
2020,01,30,04,53,0.00
2020,01,30,04,54,0.00
2020,01,30,04,55,0.00
2020,01,30,04,56,0.00
2020,01,30,04,57,0.00
2020,01,30,04,58,0.00
2020,01,30,04,59,0.00
2020,01,30,05,00,0.00
2020,01,30,05,01,0.00
2020,01,30,05,02,0.00
2020,01,30,05,03,0.00
2020,01,30,05,04,0.00
2020,01,30,05,05,0.00
2020,01,30,05,06,0.00
2020,01,30,05,07,0.00
2020,01,30,05,08,0.00
2020,01,30,05,09,0.00
2020,01,30,05,10,0.00
2020,01,30,05,11,0.00
2020,01,30,05,12,0.00
2020,01,30,05,13,0.00
2020,01,30,05,14,0.00
2020,01,30,05,15,0.00
2020,01,30,05,16,0.00
2020,01,30,05,17,0.00
2020,01,30,05,18,0.00
2020,01,30,05,19,0.00
2020,01,30,05,20,0.00
2020,01,30,05,21,0.00
2020,01,30,05,22,0.00
2020,01,30,05,23,0.00
2020,01,30,05,24,0.00
2020,01,30,05,25,0.00
2020,01,30,05,26,0.00
2020,01,30,05,27,0.00
2020,01,30,05,28,0.00
2020,01,30,05,29,0.00
2020,01,30,05,30,0.00
2020,01,30,05,31,0.00
2020,01,30,05,32,0.00
2020,01,30,05,33,0.00
2020,01,30,05,34,0.00
2020,01,30,05,35,0.00
2020,01,30,05,36,0.00
2020,01,30,05,37,0.00
2020,01,30,05,38,0.00
2020,01,30,05,39,0.00
2020,01,30,05,40,0.00
2020,01,30,05,41,0.00
2020,01,30,05,42,0.00
2020,01,30,05,43,0.00
2020,01,30,05,44,0.00
2020,01,30,05,45,0.00
2020,01,30,05,46,0.00
2020,01,30,05,47,0.00
2020,01,30,05,48,0.00
2020,01,30,05,49,0.00
2020,01,30,05,50,0.00
2020,01,30,05,51,0.00
2020,01,30,05,52,0.00
2020,01,30,05,53,0.00
2020,01,30,05,54,0.00
2020,01,30,05,55,0.00
2020,01,30,05,56,0.00
2020,01,30,05,57,0.00
2020,01,30,05,58,0.00
2020,01,30,05,59,0.00
2020,01,30,06,00,0.00
2020,01,30,06,01,0.00
2020,01,30,06,02,0.00
2020,01,30,06,03,0.00
2020,01,30,06,04,0.00
2020,01,30,06,05,0.00
2020,01,30,06,06,0.00
2020,01,30,06,07,0.00
2020,01,30,06,08,0.00
2020,01,30,06,09,0.00
2020,01,30,06,10,0.00
2020,01,30,06,11,0.00
2020,01,30,06,12,0.00
2020,01,30,06,13,0.00
2020,01,30,06,14,0.00
2020,01,30,06,15,0.00
2020,01,30,06,16,0.00
2020,01,30,06,17,0.00
2020,01,30,06,18,0.00
2020,01,30,06,19,0.00
2020,01,30,06,20,0.00
2020,01,30,06,21,0.00
2020,01,30,06,22,0.00
2020,01,30,06,23,0.00
2020,01,30,06,24,0.00
2020,01,30,06,25,0.00
2020,01,30,06,26,0.00
2020,01,30,06,27,0.00
2020,01,30,06,28,0.00
2020,01,30,06,29,0.00
2020,01,30,06,30,0.00
2020,01,30,06,31,0.00
2020,01,30,06,32,0.00
2020,01,30,06,33,0.00
2020,01,30,06,34,0.00
2020,01,30,06,35,0.00
2020,01,30,06,36,0.00
2020,01,30,06,37,0.00
2020,01,30,06,38,0.00
2020,01,30,06,39,0.00
2020,01,30,06,40,0.00
2020,01,30,06,41,0.00
2020,01,30,06,42,0.00
2020,01,30,06,43,0.00
2020,01,30,06,44,0.00
2020,01,30,06,45,0.00
2020,01,30,06,46,0.00
2020,01,30,06,47,0.00
2020,01,30,06,48,0.00
2020,01,30,06,49,0.00
2020,01,30,06,50,0.00
2020,01,30,06,51,0.00
2020,01,30,06,52,0.00
2020,01,30,06,53,0.00
2020,01,30,06,54,0.00
2020,01,30,06,55,0.00
2020,01,30,06,56,0.00
2020,01,30,06,57,0.00
2020,01,30,06,58,0.00
2020,01,30,06,59,0.00
2020,01,30,07,00,0.00
2020,01,30,07,01,0.00
2020,01,30,07,02,0.00
2020,01,30,07,03,0.00
2020,01,30,07,04,0.00
2020,01,30,07,05,0.00
2020,01,30,07,06,0.00
2020,01,30,07,07,0.00
2020,01,30,07,08,0.00
2020,01,30,07,09,0.00
2020,01,30,07,10,0.00
2020,01,30,07,11,0.00
2020,01,30,07,12,0.00
2020,01,30,07,13,0.00
2020,01,30,07,14,0.00
2020,01,30,07,15,0.00
2020,01,30,07,16,0.00
2020,01,30,07,17,0.00
2020,01,30,07,18,0.00
2020,01,30,07,19,0.00
2020,01,30,07,20,0.00
2020,01,30,07,21,0.00
2020,01,30,07,22,0.00
2020,01,30,07,23,0.00
2020,01,30,07,24,0.00
2020,01,30,07,25,0.00
2020,01,30,07,26,0.00
2020,01,30,07,27,0.00
2020,01,30,07,28,0.00
2020,01,30,07,29,0.00
2020,01,30,07,30,0.00
2020,01,30,07,31,0.00
2020,01,30,07,32,0.00
2020,01,30,07,33,0.00
2020,01,30,07,34,0.00
2020,01,30,07,35,0.00
2020,01,30,07,36,0.00
2020,01,30,07,37,0.00
2020,01,30,07,38,0.00
2020,01,30,07,39,0.00
2020,01,30,07,40,0.00
2020,01,30,07,41,0.00
2020,01,30,07,42,0.00
2020,01,30,07,43,0.00
2020,01,30,07,44,0.00
2020,01,30,07,45,0.00
2020,01,30,07,46,0.00
2020,01,30,07,47,0.00
2020,01,30,07,48,0.00
2020,01,30,07,49,0.00
2020,01,30,07,50,0.00
2020,01,30,07,51,0.00
2020,01,30,07,52,0.00
2020,01,30,07,53,0.00
2020,01,30,07,54,0.00
2020,01,30,07,55,0.00
2020,01,30,07,56,0.00
2020,01,30,07,57,0.00
2020,01,30,07,58,0.00
2020,01,30,07,59,0.00
2020,01,30,08,00,0.00
2020,01,30,08,01,0.00
2020,01,30,08,02,0.00
2020,01,30,08,03,0.00
2020,01,30,08,04,3.80
2020,01,30,08,05,5.00
2020,01,30,08,06,5.00
2020,01,30,08,07,5.00
2020,01,30,08,08,5.00
2020,01,30,08,09,5.00
2020,01,30,08,10,5.00
2020,01,30,08,11,6.50
2020,01,30,08,12,7.00
2020,01,30,08,13,7.00
2020,01,30,08,14,7.40
2020,01,30,08,15,9.00
2020,01,30,08,16,9.00
2020,01,30,08,17,10.20
2020,01,30,08,18,11.00
2020,01,30,08,19,11.80
2020,01,30,08,20,12.10
2020,01,30,08,21,14.50
2020,01,30,08,22,16.00
2020,01,30,08,23,16.90
2020,01,30,08,24,18.60
2020,01,30,08,25,19.00
2020,01,30,08,26,20.60
2020,01,30,08,27,21.00
2020,01,30,08,28,21.00
2020,01,30,08,29,21.00
2020,01,30,08,30,21.90
2020,01,30,08,31,23.00
2020,01,30,08,32,24.40
2020,01,30,08,33,25.00
2020,01,30,08,34,25.10
2020,01,30,08,35,26.00
2020,01,30,08,36,26.00
2020,01,30,08,37,26.00
2020,01,30,08,38,27.10
2020,01,30,08,39,28.00
2020,01,30,08,40,29.60
2020,01,30,08,41,30.30
2020,01,30,08,42,33.50
2020,01,30,08,43,36.40
2020,01,30,08,44,40.30
2020,01,30,08,45,44.30
2020,01,30,08,46,46.70
2020,01,30,08,47,50.20
2020,01,30,08,48,54.20
2020,01,30,08,49,59.20
2020,01,30,08,50,64.50
2020,01,30,08,51,67.00
2020,01,30,08,52,67.00
2020,01,30,08,53,70.70
2020,01,30,08,54,87.70
2020,01,30,08,55,92.10
2020,01,30,08,56,76.00
2020,01,30,08,57,72.00
2020,01,30,08,58,74.20
2020,01,30,08,59,86.50
2020,01,30,09,00,105.00
2020,01,30,09,01,111.00
2020,01,30,09,02,103.10
2020,01,30,09,03,115.40
2020,01,30,09,04,129.20
2020,01,30,09,05,138.80
2020,01,30,09,06,137.40
2020,01,30,09,07,130.10
2020,01,30,09,08,131.20
2020,01,30,09,09,134.90
2020,01,30,09,10,127.90
2020,01,30,09,11,103.20
2020,01,30,09,12,97.60
2020,01,30,09,13,88.10
2020,01,30,09,14,78.00
2020,01,30,09,15,74.30
2020,01,30,09,16,70.30
2020,01,30,09,17,72.40
2020,01,30,09,18,74.70
2020,01,30,09,19,74.20
2020,01,30,09,20,72.00
2020,01,30,09,21,68.40
2020,01,30,09,22,67.00
2020,01,30,09,23,65.30
2020,01,30,09,24,69.00
2020,01,30,09,25,78.40
2020,01,30,09,26,78.70
2020,01,30,09,27,78.90
2020,01,30,09,28,80.20
2020,01,30,09,29,83.00
2020,01,30,09,30,83.40
2020,01,30,09,31,88.50
2020,01,30,09,32,83.30
2020,01,30,09,33,91.00
2020,01,30,09,34,93.20
2020,01,30,09,35,88.50
2020,01,30,09,36,84.80
2020,01,30,09,37,85.10
2020,01,30,09,38,95.00
2020,01,30,09,39,93.20
2020,01,30,09,40,88.10
2020,01,30,09,41,87.10
2020,01,30,09,42,89.50
2020,01,30,09,43,88.40
2020,01,30,09,44,90.30
2020,01,30,09,45,91.60
2020,01,30,09,46,86.00
2020,01,30,09,47,83.60
2020,01,30,09,48,78.10
2020,01,30,09,49,69.60
2020,01,30,09,50,65.30
2020,01,30,09,51,62.50
2020,01,30,09,52,56.80
2020,01,30,09,53,52.30
2020,01,30,09,54,51.90
2020,01,30,09,55,53.00
2020,01,30,09,56,51.60
2020,01,30,09,57,51.00
2020,01,30,09,58,53.40
2020,01,30,09,59,58.40
2020,01,30,10,00,60.00
2020,01,30,10,01,60.00
2020,01,30,10,02,58.80
2020,01,30,10,03,55.30
2020,01,30,10,04,53.20
2020,01,30,10,05,53.30
2020,01,30,10,06,56.50
2020,01,30,10,07,58.00
2020,01,30,10,08,59.90
2020,01,30,10,09,62.00
2020,01,30,10,10,62.00
2020,01,30,10,11,62.80
2020,01,30,10,12,65.00
2020,01,30,10,13,65.40
2020,01,30,10,14,68.00
2020,01,30,10,15,70.90
2020,01,30,10,16,74.80
2020,01,30,10,17,78.40
2020,01,30,10,18,80.60
2020,01,30,10,19,84.10
2020,01,30,10,20,86.50
2020,01,30,10,21,89.10
2020,01,30,10,22,92.90
2020,01,30,10,23,96.80
2020,01,30,10,24,102.20
2020,01,30,10,25,108.00
2020,01,30,10,26,111.30
2020,01,30,10,27,114.40
2020,01,30,10,28,116.00
2020,01,30,10,29,117.80
2020,01,30,10,30,120.00
2020,01,30,10,31,114.80
2020,01,30,10,32,109.60
2020,01,30,10,33,108.80
2020,01,30,10,34,106.60
2020,01,30,10,35,104.70
2020,01,30,10,36,104.50
2020,01,30,10,37,105.00
2020,01,30,10,38,107.90
2020,01,30,10,39,109.00
2020,01,30,10,40,103.80
2020,01,30,10,41,98.80
2020,01,30,10,42,95.00
2020,01,30,10,43,93.00
2020,01,30,10,44,89.20
2020,01,30,10,45,90.10
2020,01,30,10,46,95.80
2020,01,30,10,47,101.60
2020,01,30,10,48,99.40
2020,01,30,10,49,94.80
2020,01,30,10,50,92.80
2020,01,30,10,51,95.00
2020,01,30,10,52,95.00
2020,01,30,10,53,91.80
2020,01,30,10,54,90.70
2020,01,30,10,55,88.50
2020,01,30,10,56,89.30
2020,01,30,10,57,91.50
2020,01,30,10,58,95.00
2020,01,30,10,59,102.10
2020,01,30,11,00,105.00
2020,01,30,11,01,109.40
2020,01,30,11,02,111.50
2020,01,30,11,03,107.70
2020,01,30,11,04,106.60
2020,01,30,11,05,104.60
2020,01,30,11,06,107.80
2020,01,30,11,07,112.20
2020,01,30,11,08,110.90
2020,01,30,11,09,109.40
2020,01,30,11,10,111.00
2020,01,30,11,11,112.00
2020,01,30,11,12,113.60
2020,01,30,11,13,115.40
2020,01,30,11,14,120.20
2020,01,30,11,15,121.20
2020,01,30,11,16,124.00
2020,01,30,11,17,131.90
2020,01,30,11,18,151.40
2020,01,30,11,19,164.20
2020,01,30,11,20,157.90
2020,01,30,11,21,155.00
2020,01,30,11,22,359.70
2020,01,30,11,23,378.00
2020,01,30,11,24,312.90
2020,01,30,11,25,220.60
2020,01,30,11,26,278.70
2020,01,30,11,27,297.00
2020,01,30,11,28,172.20
2020,01,30,11,29,139.50
2020,01,30,11,30,144.40
2020,01,30,11,31,149.50
2020,01,30,11,32,161.00
2020,01,30,11,33,169.10
2020,01,30,11,34,174.50
2020,01,30,11,35,184.10
2020,01,30,11,36,187.70
2020,01,30,11,37,185.80
2020,01,30,11,38,182.90
2020,01,30,11,39,179.00
2020,01,30,11,40,180.10
2020,01,30,11,41,187.30
2020,01,30,11,42,198.00
2020,01,30,11,43,217.80
2020,01,30,11,44,225.00
2020,01,30,11,45,226.30
2020,01,30,11,46,230.40
2020,01,30,11,47,232.00
2020,01,30,11,48,232.00
2020,01,30,11,49,228.00
2020,01,30,11,50,221.30
2020,01,30,11,51,202.20
2020,01,30,11,52,192.00
2020,01,30,11,53,180.00
2020,01,30,11,54,163.20
2020,01,30,11,55,150.00
2020,01,30,11,56,144.60
2020,01,30,11,57,156.20
2020,01,30,11,58,158.00
2020,01,30,11,59,158.00
2020,01,30,12,00,163.50
2020,01,30,12,01,172.00
2020,01,30,12,02,175.40
2020,01,30,12,03,180.00
2020,01,30,12,04,183.50
2020,01,30,12,05,171.40
2020,01,30,12,06,177.90
2020,01,30,12,07,177.00
2020,01,30,12,08,187.50
2020,01,30,12,09,209.00
2020,01,30,12,10,203.00
2020,01,30,12,11,221.00
2020,01,30,12,12,231.20
2020,01,30,12,13,236.30
2020,01,30,12,14,229.40
2020,01,30,12,15,222.90
2020,01,30,12,16,245.60
2020,01,30,12,17,253.00
2020,01,30,12,18,244.30
2020,01,30,12,19,239.40
2020,01,30,12,20,231.30
2020,01,30,12,21,243.00
2020,01,30,12,22,300.00
2020,01,30,12,23,309.30
2020,01,30,12,24,253.80
2020,01,30,12,25,314.60
2020,01,30,12,26,249.60
2020,01,30,12,27,202.40
2020,01,30,12,28,199.40
2020,01,30,12,29,198.00
2020,01,30,12,30,199.10
2020,01,30,12,31,197.00
2020,01,30,12,32,187.60
2020,01,30,12,33,207.60
2020,01,30,12,34,196.10
2020,01,30,12,35,159.90
2020,01,30,12,36,161.10
2020,01,30,12,37,145.80
2020,01,30,12,38,159.40
2020,01,30,12,39,166.40
2020,01,30,12,40,181.00
2020,01,30,12,41,200.30
2020,01,30,12,42,257.20
2020,01,30,12,43,277.40
2020,01,30,12,44,285.80
2020,01,30,12,45,256.40
2020,01,30,12,46,245.80
2020,01,30,12,47,238.80
2020,01,30,12,48,295.90
2020,01,30,12,49,266.30
2020,01,30,12,50,227.10
2020,01,30,12,51,222.10
2020,01,30,12,52,241.00
2020,01,30,12,53,280.70
2020,01,30,12,54,241.70
2020,01,30,12,55,262.50
2020,01,30,12,56,276.30
2020,01,30,12,57,272.10
2020,01,30,12,58,327.80
2020,01,30,12,59,281.50
2020,01,30,13,00,358.40
2020,01,30,13,01,309.00
2020,01,30,13,02,299.90
2020,01,30,13,03,271.30
2020,01,30,13,04,257.50
2020,01,30,13,05,258.00
2020,01,30,13,06,264.00
2020,01,30,13,07,194.50
2020,01,30,13,08,169.00
2020,01,30,13,09,183.00
2020,01,30,13,10,211.20
2020,01,30,13,11,237.60
2020,01,30,13,12,249.10
2020,01,30,13,13,243.40
2020,01,30,13,14,243.10
2020,01,30,13,15,240.40
2020,01,30,13,16,225.90
2020,01,30,13,17,210.60
2020,01,30,13,18,196.80
2020,01,30,13,19,206.20
2020,01,30,13,20,212.70
2020,01,30,13,21,207.50
2020,01,30,13,22,208.60
2020,01,30,13,23,204.10
2020,01,30,13,24,220.60
2020,01,30,13,25,225.20
2020,01,30,13,26,220.90
2020,01,30,13,27,194.50
2020,01,30,13,28,186.80
2020,01,30,13,29,197.00
2020,01,30,13,30,188.90
2020,01,30,13,31,181.00
2020,01,30,13,32,193.40
2020,01,30,13,33,182.30
2020,01,30,13,34,176.00
2020,01,30,13,35,166.20
2020,01,30,13,36,176.30
2020,01,30,13,37,166.90
2020,01,30,13,38,161.40
2020,01,30,13,39,166.30
2020,01,30,13,40,182.30
2020,01,30,13,41,189.60
2020,01,30,13,42,197.00
2020,01,30,13,43,201.00
2020,01,30,13,44,211.60
2020,01,30,13,45,207.90
2020,01,30,13,46,211.30
2020,01,30,13,47,213.70
2020,01,30,13,48,246.20
2020,01,30,13,49,239.10
2020,01,30,13,50,213.60
2020,01,30,13,51,216.70
2020,01,30,13,52,211.70
2020,01,30,13,53,196.80
2020,01,30,13,54,182.20
2020,01,30,13,55,178.00
2020,01,30,13,56,159.10
2020,01,30,13,57,162.80
2020,01,30,13,58,169.70
2020,01,30,13,59,168.00
2020,01,30,14,00,169.00
2020,01,30,14,01,167.50
2020,01,30,14,02,165.30
2020,01,30,14,03,168.50
2020,01,30,14,04,165.00
2020,01,30,14,05,163.90
2020,01,30,14,06,164.50
2020,01,30,14,07,169.40
2020,01,30,14,08,171.00
2020,01,30,14,09,169.40
2020,01,30,14,10,164.30
2020,01,30,14,11,156.30
2020,01,30,14,12,148.60
2020,01,30,14,13,144.00
2020,01,30,14,14,134.60
2020,01,30,14,15,117.90
2020,01,30,14,16,113.20
2020,01,30,14,17,113.00
2020,01,30,14,18,113.20
2020,01,30,14,19,112.90
2020,01,30,14,20,109.20
2020,01,30,14,21,104.20
2020,01,30,14,22,94.30
2020,01,30,14,23,84.60
2020,01,30,14,24,77.20
2020,01,30,14,25,76.00
2020,01,30,14,26,75.30
2020,01,30,14,27,73.10
2020,01,30,14,28,70.30
2020,01,30,14,29,67.60
2020,01,30,14,30,65.30
2020,01,30,14,31,65.00
2020,01,30,14,32,64.60
2020,01,30,14,33,62.00
2020,01,30,14,34,58.00
2020,01,30,14,35,53.00
2020,01,30,14,36,51.00
2020,01,30,14,37,45.00
2020,01,30,14,38,41.90
2020,01,30,14,39,40.00
2020,01,30,14,40,41.30
2020,01,30,14,41,44.90
2020,01,30,14,42,46.50
2020,01,30,14,43,46.30
2020,01,30,14,44,46.00
2020,01,30,14,45,46.00
2020,01,30,14,46,45.60
2020,01,30,14,47,43.30
2020,01,30,14,48,42.90
2020,01,30,14,49,45.20
2020,01,30,14,50,46.70
2020,01,30,14,51,42.80
2020,01,30,14,52,44.20
2020,01,30,14,53,47.00
2020,01,30,14,54,49.00
2020,01,30,14,55,53.00
2020,01,30,14,56,51.80
2020,01,30,14,57,49.60
2020,01,30,14,58,50.70
2020,01,30,14,59,50.50
2020,01,30,15,00,46.00
2020,01,30,15,01,46.00
2020,01,30,15,02,46.00
2020,01,30,15,03,46.00
2020,01,30,15,04,44.50
2020,01,30,15,05,44.00
2020,01,30,15,06,46.20
2020,01,30,15,07,54.00
2020,01,30,15,08,59.40
2020,01,30,15,09,59.30
2020,01,30,15,10,52.20
2020,01,30,15,11,44.10
2020,01,30,15,12,37.90
2020,01,30,15,13,30.10
2020,01,30,15,14,29.70
2020,01,30,15,15,36.70
2020,01,30,15,16,39.60
2020,01,30,15,17,37.80
2020,01,30,15,18,35.60
2020,01,30,15,19,39.00
2020,01,30,15,20,43.40
2020,01,30,15,21,40.00
2020,01,30,15,22,42.50
2020,01,30,15,23,44.80
2020,01,30,15,24,39.10
2020,01,30,15,25,39.10
2020,01,30,15,26,41.60
2020,01,30,15,27,39.20
2020,01,30,15,28,39.20
2020,01,30,15,29,40.00
2020,01,30,15,30,38.50
2020,01,30,15,31,35.80
2020,01,30,15,32,33.60
2020,01,30,15,33,34.60
2020,01,30,15,34,34.90
2020,01,30,15,35,32.40
2020,01,30,15,36,30.00
2020,01,30,15,37,30.00
2020,01,30,15,38,31.20
2020,01,30,15,39,30.60
2020,01,30,15,40,28.30
2020,01,30,15,41,29.70
2020,01,30,15,42,28.00
2020,01,30,15,43,28.00
2020,01,30,15,44,28.00
2020,01,30,15,45,29.10
2020,01,30,15,46,30.00
2020,01,30,15,47,28.30
2020,01,30,15,48,26.00
2020,01,30,15,49,25.00
2020,01,30,15,50,25.00
2020,01,30,15,51,25.00
2020,01,30,15,52,25.00
2020,01,30,15,53,23.60
2020,01,30,15,54,23.00
2020,01,30,15,55,24.90
2020,01,30,15,56,25.00
2020,01,30,15,57,24.40
2020,01,30,15,58,22.10
2020,01,30,15,59,21.00
2020,01,30,16,00,21.00
2020,01,30,16,01,21.00
2020,01,30,16,02,21.20
2020,01,30,16,03,22.60
2020,01,30,16,04,20.30
2020,01,30,16,05,19.00
2020,01,30,16,06,19.00
2020,01,30,16,07,19.00
2020,01,30,16,08,19.00
2020,01,30,16,09,18.90
2020,01,30,16,10,18.00
2020,01,30,16,11,18.00
2020,01,30,16,12,17.10
2020,01,30,16,13,16.00
2020,01,30,16,14,14.60
2020,01,30,16,15,14.00
2020,01,30,16,16,14.00
2020,01,30,16,17,13.60
2020,01,30,16,18,12.00
2020,01,30,16,19,12.00
2020,01,30,16,20,11.40
2020,01,30,16,21,11.00
2020,01,30,16,22,11.00
2020,01,30,16,23,11.00
2020,01,30,16,24,11.00
2020,01,30,16,25,11.00
2020,01,30,16,26,11.00
2020,01,30,16,27,11.00
2020,01,30,16,28,11.00
2020,01,30,16,29,11.00
2020,01,30,16,30,11.00
2020,01,30,16,31,10.60
2020,01,30,16,32,9.00
2020,01,30,16,33,9.00
2020,01,30,16,34,9.00
2020,01,30,16,35,9.00
2020,01,30,16,36,9.00
2020,01,30,16,37,8.80
2020,01,30,16,38,7.00
2020,01,30,16,39,7.00
2020,01,30,16,40,7.00
2020,01,30,16,41,7.00
2020,01,30,16,42,5.60
2020,01,30,16,43,5.00
2020,01,30,16,44,5.00
2020,01,30,16,45,5.00
2020,01,30,16,46,5.00
2020,01,30,16,47,5.00
2020,01,30,16,48,5.00
2020,01,30,16,49,5.00
2020,01,30,16,50,5.00
2020,01,30,16,51,5.00
2020,01,30,16,52,4.00
2020,01,30,16,53,0.00
2020,01,30,16,54,0.00
2020,01,30,16,55,0.00
2020,01,30,16,56,0.00
2020,01,30,16,57,0.00
2020,01,30,16,58,0.00
2020,01,30,16,59,0.00
2020,01,30,17,00,0.00
2020,01,30,17,01,0.00
2020,01,30,17,02,0.00
2020,01,30,17,03,0.00
2020,01,30,17,04,0.00
2020,01,30,17,05,0.00
2020,01,30,17,06,0.00
2020,01,30,17,07,0.00
2020,01,30,17,08,0.00
2020,01,30,17,09,0.00
2020,01,30,17,10,0.00
2020,01,30,17,11,0.00
2020,01,30,17,12,0.00
2020,01,30,17,13,0.00
2020,01,30,17,14,0.00
2020,01,30,17,15,0.00
2020,01,30,17,16,0.00
2020,01,30,17,17,0.00
2020,01,30,17,18,0.00
2020,01,30,17,19,0.00
2020,01,30,17,20,0.00
2020,01,30,17,21,0.00
2020,01,30,17,22,0.00
2020,01,30,17,23,0.00
2020,01,30,17,24,0.00
2020,01,30,17,25,0.00
2020,01,30,17,26,0.00
2020,01,30,17,27,0.00
2020,01,30,17,28,0.00
2020,01,30,17,29,0.00
2020,01,30,17,30,0.00
2020,01,30,17,31,0.00
2020,01,30,17,32,0.00
2020,01,30,17,33,0.00